Terminal Aerodrome Forecast
Issued by NWS

Home | Current Version | Previous Version | Graphics & Text | Print | Product List | Glossary On
Versions: 1 2 3 4 5 6 7 8 9 10 11 12 13 14 15 16 17 18 19 20 21 22 23 24 25 26 27 28 29 30 31 32 33 34 35 36 37 38 39 40 41 42 43 44 45 46
000
FTUS43 KGRB 221700
TAFRHI
TAF
KRHI 221730Z 2218/2318 13005KT 5SM BR OVC003
     FM222000 11004KT 6SM HZ BKN010
     FM230200 VRB03KT 4SM BR BKN015
     FM230400 VRB03KT 1SM BR OVC005
      TEMPO 2309/2313 1/2SM FG OVC002
     FM231400 10006KT 4SM BR OVC004
     FM231600 10008KT 6SM BR OVC006=

USA.gov is the U.S. government's official web portal to all federal, state and local government web resources and services.